GRARBER Weather Reports


time (UTC)temp
C
wind
direction
speed
KPH
gust
KPH
rain 1hr
cm
rain 24hr
cm
rain mn
cm
humidity
%
barometer
mb
20260507101855 3 230 27.4 40.2 0.00 0.00 0.00 99
20260507091655 2 220 25.7 38.6 0.00 0.00 0.00 99
20260507081654 2 220 33.8 46.7 0.00 0.00 0.00 99
20260507071655 2 220 37.0 49.9 0.00 0.00 0.00 99
20260507061655 2 220 35.4 46.7 0.00 0.00 0.00 99
20260507051655 2 230 38.6 51.5 0.00 0.00 0.00 99
20260507041857 2 230 38.6 49.9 0.00 0.00 0.00 99
20260507031655 2 230 40.2 0.0 0.00 0.00 0.00 99
20260507021653 3 230 35.4 46.7 0.00 0.00 0.00 99
20260507011754 5 220 29.0 45.1 0.00 0.00 0.00 99
20260507001655 5 220 29.0 45.1 0.00 0.00 0.00 99
20260506231655 5 230 25.7 37.0 0.00 0.00 0.00 99
20260506221855 6 240 20.9 0.0 0.00 0.00 0.00 99
20260506211655 6 230 45.1 57.9 0.00 0.00 0.00 99
20260506201656 6 230 41.8 53.1 0.00 0.00 0.00 86
20260506191710 7 260 27.4 41.8 0.00 0.00 0.00 75
20260506181711 6 260 29.0 41.8 0.00 0.00 0.00 99
20260506171654 10 310 12.9 0.0 0.00 0.00 0.00 81
20260506161855 11 340 12.9 0.0 0.00 0.00 0.00 76
20260506151655 12 340 12.9 0.0 0.00 0.00 0.00 71
20260506141655 12 170 8.0 0.0 0.00 0.00 0.00 58
20260506131655 12 170 12.9 0.0 0.00 0.00 0.00 58
20260506121655 12 170 12.9 0.0 0.00 0.00 0.00 54
20260506111656 12 190 14.5 25.7 0.00 0.00 0.00 54